Simultaneous Nadir Overpasses (SNOs) Predictions

Prediction of SNOs between GOES-16 and METOP-B Satellite Orbit:

Table of predicted SNOs for the next 14.0 days since TLE Epoch: 4/13/2017
Index Date Time (GOES-16) GOES-16 Lat,Lon METOP-B Lat,Lon Distance(km) Time Diff (sec)
1 04/14/2017 15:39:00 0.01, -89.50 0.58, -92.14 299.89 80
2 04/15/2017 15:21:01 0.01, -89.51 -0.54, -87.15 269.55 80
3 04/17/2017 03:40:01 0.00, -89.47 -0.49, -91.74 258.31 80
4 04/18/2017 03:16:42 0.01, -89.48 0.63, -86.75 310.77 80
5 04/19/2017 15:35:33 -0.02, -89.52 0.37, -91.32 204.67 80
6 04/20/2017 15:17:34 -0.02, -89.52 -0.75, -86.32 365.00 80
7 04/22/2017 03:36:34 0.02, -89.50 -0.28, -90.92 161.90 80
8 04/23/2017 03:13:15 0.02, -89.50 0.85, -85.93 407.75 80
9 04/24/2017 15:32:06 -0.03, -89.55 0.16, -90.49 107.34 80
10 04/25/2017 15:14:05 -0.03, -89.55 -0.91, -85.49 462.67 80
11 04/27/2017 03:33:06 0.03, -89.53 -0.11, -90.09 63.71 80




NCC Satellite Simultaneous Nadir Overpasses (SNOs) Prediction Service
